When you browse on this site, cookies collect data to enhance your experience and personalize the content and advertising you see.
Visit our Privacy Policy to learn more. By continuing to use the site, you agree to this use of cookies and data.
  • In Hungary
  • List of Countries
  • For 7 days
  • Water Temperature
  • Weather Map
  • News
  • Weather Widgets
  • user-avatar
    Login

    Hourly Weather La Chapelle-Montbrandeix

    Today, 14 November, Thursday

    Time Temperature Precipitation Wind Pressure Humidity
    00:00 +5°C° 0 mm 5 mps 717 mmHg 93%
    01:00 +4°C° 2.7 mm 4 mps 717 mmHg 94%
    02:00 +4°C° 2.7 mm 3 mps 717 mmHg 95%
    03:00 +5°C° 2.7 mm 2 mps 716 mmHg 96%
    04:00 +4°C° 0.4 mm 2 mps 717 mmHg 96%
    05:00 +4°C° 0.4 mm 2 mps 717 mmHg 95%
    06:00 +4°C° 0 mm 2 mps 717 mmHg 96%
    07:00 +4°C° 0.2 mm 2 mps 718 mmHg 94%
    08:00 +5°C° 0.2 mm 2 mps 718 mmHg 93%
    09:00 +5°C° 0.2 mm 2 mps 718 mmHg 92%
    10:00 +6°C° 0.1 mm 2 mps 718 mmHg 87%
    11:00 +7°C° 0.1 mm 2 mps 717 mmHg 83%
    12:00 +7°C° 0.1 mm 2 mps 717 mmHg 78%
    13:00 +7°C° 0.2 mm 2 mps 717 mmHg 80%
    14:00 +8°C° 0.2 mm 1 mps 717 mmHg 81%
    15:00 +8°C° 0.2 mm 1 mps 716 mmHg 83%
    16:00 +6°C° 0.1 mm 1 mps 716 mmHg 87%
    17:00 +5°C° 0.1 mm 1 mps 716 mmHg 92%
    18:00 +4°C° 0.1 mm 1 mps 716 mmHg 96%
    19:00 +3°C° 0 mm 1 mps 716 mmHg 96%
    20:00 +2°C° 0 mm 0 mps 716 mmHg 96%
    21:00 +2°C° 0 mm 0 mps 716 mmHg 96%
    22:00 +2°C° 0 mm 0 mps 716 mmHg 96%
    23:00 +1°C° 0 mm 0 mps 716 mmHg 97%

    Tomorrow, 15 November, Friday

    Time Temperature Precipitation Wind Pressure Humidity
    00:00 +1°C° 0 mm 0 mps 716 mmHg 97%
    01:00 +1°C° 0 mm 0 mps 716 mmHg 97%
    02:00 +1°C° 0 mm 0 mps 716 mmHg 97%
    03:00 +1°C° 0 mm 0 mps 716 mmHg 96%
    04:00 +1°C° 0 mm 0 mps 716 mmHg 96%
    05:00 +1°C° 0 mm 0 mps 717 mmHg 97%
    06:00 0°C° 0 mm 0 mps 717 mmHg 97%
    07:00 +1°C° 0 mm 0 mps 718 mmHg 95%
    08:00 +2°C° 0 mm 0 mps 718 mmHg 94%
    09:00 +3°C° 0 mm 0 mps 719 mmHg 92%
    10:00 +4°C° 0 mm 0 mps 719 mmHg 88%
    11:00 +5°C° 0 mm 0 mps 719 mmHg 84%
    12:00 +6°C° 0 mm 0 mps 720 mmHg 79%
    13:00 +6°C° 0 mm 0 mps 720 mmHg 80%
    14:00 +7°C° 0 mm 1 mps 720 mmHg 81%
    15:00 +7°C° 0 mm 1 mps 720 mmHg 81%
    16:00 +6°C° 0 mm 1 mps 720 mmHg 86%
    17:00 +3°C° 0 mm 0 mps 720 mmHg 91%
    18:00 +2°C° 0 mm 0 mps 720 mmHg 96%
    19:00 +1°C° 0 mm 0 mps 721 mmHg 96%
    20:00 +1°C° 0 mm 0 mps 721 mmHg 97%
    21:00 0°C° 0 mm 0 mps 722 mmHg 97%
    22:00 0°C° 0 mm 0 mps 722 mmHg 97%
    23:00 +1°C° 0 mm 1 mps 722 mmHg 97%

    Day after tomorrow, 16 November, Saturday

    Time Temperature Precipitation Wind Pressure Humidity
    00:00 +1°C° 0 mm 1 mps 722 mmHg 97%
    01:00 +1°C° 0 mm 1 mps 722 mmHg 97%
    02:00 -1°C° 0 mm 2 mps 722 mmHg 96%
    03:00 -1°C° 0 mm 2 mps 722 mmHg 96%
    04:00 +1°C° 0 mm 2 mps 723 mmHg 95%
    05:00 0°C° 0 mm 3 mps 723 mmHg 95%
    06:00 +1°C° 0 mm 3 mps 723 mmHg 94%
    07:00 +1°C° 0.2 mm 3 mps 723 mmHg 93%
    08:00 +1°C° 0.2 mm 4 mps 724 mmHg 93%
    09:00 +1°C° 0.2 mm 4 mps 724 mmHg 92%
    10:00 +3°C° 0.3 mm 4 mps 724 mmHg 91%
    11:00 +3°C° 0.3 mm 4 mps 724 mmHg 90%
    12:00 +4°C° 0.3 mm 4 mps 724 mmHg 90%
    13:00 +4°C° 1 mm 4 mps 724 mmHg 91%
    14:00 +4°C° 1 mm 3 mps 724 mmHg 92%
    15:00 +4°C° 1 mm 3 mps 723 mmHg 93%
    16:00 +5°C° 0.8 mm 2 mps 724 mmHg 94%
    17:00 +5°C° 0.8 mm 2 mps 724 mmHg 96%
    18:00 +4°C° 0.8 mm 2 mps 724 mmHg 98%
    19:00 +5°C° 0.3 mm 1 mps 724 mmHg 98%
    20:00 +5°C° 0.3 mm 1 mps 725 mmHg 98%
    21:00 +5°C° 0.3 mm 1 mps 725 mmHg 98%
    22:00 +4°C° 0.3 mm 1 mps 725 mmHg 98%
    23:00 +4°C° 0.3 mm 1 mps 725 mmHg 98%

    17 November, Sunday

    Time Temperature Precipitation Wind Pressure Humidity
    00:00 +4°C° 0.3 mm 1 mps 725 mmHg 97%
    01:00 +3°C° 0 mm 1 mps 725 mmHg 97%
    02:00 +3°C° 0 mm 1 mps 724 mmHg 97%
    03:00 +3°C° 0 mm 1 mps 724 mmHg 97%
    04:00 +3°C° 0 mm 1 mps 724 mmHg 98%
    05:00 +2°C° 0 mm 1 mps 724 mmHg 98%
    06:00 +1°C° 0 mm 0 mps 724 mmHg 98%
    07:00 +2°C° 0 mm 0 mps 724 mmHg 96%
    08:00 +2°C° 0 mm 0 mps 724 mmHg 95%
    09:00 +3°C° 0 mm 0 mps 725 mmHg 93%
    10:00 +5°C° 0 mm 1 mps 724 mmHg 90%
    11:00 +6°C° 0 mm 1 mps 724 mmHg 88%
    12:00 +7°C° 0 mm 1 mps 724 mmHg 85%
    13:00 +6°C° 0 mm 1 mps 724 mmHg 85%
    14:00 +6°C° 0 mm 1 mps 724 mmHg 85%
    15:00 +6°C° 0 mm 1 mps 724 mmHg 85%
    16:00 +5°C° 0 mm 1 mps 724 mmHg 88%
    17:00 +4°C° 0 mm 1 mps 724 mmHg 92%
    18:00 +3°C° 0 mm 1 mps 724 mmHg 95%
    19:00 +2°C° 0 mm 1 mps 724 mmHg 96%
    20:00 +1°C° 0 mm 1 mps 725 mmHg 96%
    21:00 +1°C° 0 mm 1 mps 725 mmHg 97%
    22:00 0°C° 0 mm 1 mps 725 mmHg 97%
    23:00 -1°C° 0 mm 0 mps 725 mmHg 97%

    18 November, Monday

    Time Temperature Precipitation Wind Pressure Humidity
    00:00 -1°C° 0 mm 0 mps 725 mmHg 97%
    01:00 -1°C° 0 mm 0 mps 725 mmHg 97%
    02:00 -1°C° 0 mm 0 mps 725 mmHg 96%
    03:00 -2°C° 0 mm 0 mps 725 mmHg 96%
    04:00 -2°C° 0 mm 0 mps 726 mmHg 96%
    05:00 -2°C° 0 mm 0 mps 726 mmHg 96%
    06:00 -2°C° 0 mm 0 mps 726 mmHg 96%
    07:00 -1°C° 0 mm 0 mps 726 mmHg 91%
    08:00 +1°C° 0 mm 0 mps 727 mmHg 87%
    09:00 +2°C° 0 mm 0 mps 727 mmHg 82%
    10:00 +4°C° 0 mm 0 mps 727 mmHg 75%
    11:00 +5°C° 0 mm 0 mps 728 mmHg 68%
    12:00 +8°C° 0 mm 1 mps 728 mmHg 62%
    13:00 +7°C° 0 mm 1 mps 728 mmHg 64%
    14:00 +7°C° 0 mm 1 mps 728 mmHg 67%
    15:00 +7°C° 0 mm 1 mps 728 mmHg 69%
    16:00 +5°C° 0 mm 1 mps 728 mmHg 78%
    17:00 +3°C° 0 mm 1 mps 728 mmHg 86%
    18:00 0°C° 0 mm 0 mps 728 mmHg 95%
    19:00 0°C° 0 mm 0 mps 728 mmHg 95%
    20:00 +1°C° 0 mm 1 mps 729 mmHg 95%
    21:00 +1°C° 0 mm 1 mps 729 mmHg 96%
    22:00 +1°C° 0 mm 1 mps 729 mmHg 96%
    23:00 +1°C° 0 mm 1 mps 729 mmHg 96%

    19 November, Tuesday

    Time Temperature Precipitation Wind Pressure Humidity
    00:00 +1°C° 0 mm 1 mps 730 mmHg 96%
    01:00 +1°C° 0 mm 1 mps 730 mmHg 95%
    02:00 +1°C° 0 mm 2 mps 729 mmHg 94%
    03:00 +1°C° 0 mm 2 mps 729 mmHg 93%
    04:00 +1°C° 0 mm 2 mps 729 mmHg 93%
    05:00 +1°C° 0 mm 2 mps 729 mmHg 92%
    06:00 +1°C° 0 mm 2 mps 729 mmHg 92%
    07:00 +2°C° 0 mm 2 mps 729 mmHg 90%
    08:00 +1°C° 0 mm 3 mps 729 mmHg 88%
    09:00 +2°C° 0 mm 3 mps 729 mmHg 85%
    10:00 +3°C° 0 mm 3 mps 729 mmHg 81%
    11:00 +5°C° 0 mm 3 mps 728 mmHg 76%
    12:00 +7°C° 0 mm 3 mps 728 mmHg 71%
    13:00 +7°C° 0 mm 3 mps 727 mmHg 72%
    14:00 +7°C° 0 mm 3 mps 727 mmHg 73%
    15:00 +7°C° 0 mm 3 mps 726 mmHg 74%
    16:00 +6°C° 0 mm 2 mps 726 mmHg 77%
    17:00 +5°C° 0 mm 2 mps 726 mmHg 80%
    18:00 +5°C° 0 mm 2 mps 726 mmHg 83%
    19:00 +5°C° 0 mm 2 mps 726 mmHg 81%
    20:00 +4°C° 0 mm 3 mps 726 mmHg 79%
    21:00 +4°C° 0 mm 3 mps 726 mmHg 78%
    22:00 +4°C° 0 mm 3 mps 726 mmHg 77%
    23:00 +4°C° 0 mm 3 mps 725 mmHg 76%
    Show more